Temp
60 59 60 59 60 60 61 61 61 61 61 61 61 61 62 63 65 64 64 63 62 62 63 63 64 64 64 63 63 63 63 63 63 63 63 63 62 62 62 62 62 62
59 59 59 58 58 59 59 59 60 61 61 61 62 62 63 64 64 64 64 63 63 63 64 64 63 63 63 62 62 61 62 63 62 64 63 62 62 62 62 62 62 62
56 56 56 56 56 56 57 57 58 59 59 60 62 62 63 64 64 64 64 65 64 64 64 63 63 62 62 63 62 61 61 61 62 64 63 62 62 61 62 62 62 62
55 55 56 56 56 57 57 57 57 58 58 58 59 61 63 64 64 63 63 64 63 64 64 64 63 63 63 63 63 62 61 61 62 62 62 62 62 62 62 62 62 62
55 55 56 56 56 57 56 57 58 58 58 58 59 60 61 62 62 62 62 62 62 62 63 63 63 63 63 63 63 61 61 61 62 62 62 62 63 62 62 62 62 61
56 56 56 56 57 57 58 59 59 59 58 57 57 58 58 59 59 60 61 60 61 61 62 62 62 61 59 59 61 61 61 61 61 61 61 62 62 62 62 62 61 61
55 56 56 58 59 59 59 59 58 57 57 57 57 56 56 56 56 57 58 58 59 59 60 60 56 55 55 55 54 54 55 56 59 61 62 62 62 62 62 62 62 62
55 56 56 57 57 57 57 57 56 56 56 56 55 55 56 55 55 55 56 56 55 56 57 57 54 54 53 53 52 52 53 54 54 54 57 60 62 62 62 62 62 62
55 55 55 54 54 55 55 56 57 57 58 56 56 56 56 56 55 55 54 54 54 54 54 55 53 52 51 51 50 50 50 51 51 52 53 55 58 61 62 62 62 62
54 54 54 54 55 56 55 56 57 57 58 57 56 56 55 56 56 55 55 54 53 52 52 53 51 51 49 49 48 48 48 48 49 50 51 53 55 57 61 62 62 62
52 52 53 53 54 54 53 55 56 57 57 57 56 56 55 55 55 55 54 53 52 52 52 53 50 50 48 47 47 47 46 47 47 48 49 50 52 54 58 60 62 62
52 53 52 52 53 52 52 53 55 56 56 56 56 55 55 54 54 54 53 52 52 52 52 52 51 49 48 47 46 46 45 45 46 46 47 48 50 52 55 57 60 62
55 55 54 52 52 51 52 52 53 55 55 55 56 55 54 53 53 52 52 52 52 51 51 51 51 49 48 46 45 44 44 44 44 45 46 47 48 50 52 54 57 61
55 55 55 55 53 52 52 51 52 53 54 54 54 54 54 53 51 51 51 51 51 50 50 50 50 48 47 46 44 44 43 43 43 44 44 45 46 48 50 52 54 58
54 55 55 54 54 53 52 51 51 51 52 52 52 52 53 52 50 50 49 49 50 50 50 50 48 47 47 45 43 43 43 42 43 43 44 44 45 47 48 50 52 54
54 54 54 54 54 53 53 51 50 51 51 50 50 50 50 50 49 49 49 49 49 49 49 48 48 47 47 44 43 43 42 42 43 44 44 45 45 46 47 50 51 53
52 52 53 52 52 53 53 52 52 52 51 50 49 49 49 49 48 47 47 47 47 47 47 47 47 47 43 40 41 42 43 43 43 44 46 47 46 46 47 49 51 53
50 50 50 50 50 50 50 50 50 50 50 49 48 47 48 47 46 46 46 46 46 46 46 47 47 45 40 41 40 40 43 44 45 46 49 50 49 48 48 49 50 52
49 49 48 48 48 48 48 48 48 47 48 48 47 48 47 45 45 45 44 45 44 44 44 45 45 44 40 40 40 40 40 44 47 48 49 49 49 49 50 50 51 51
48 48 47 47 47 47 47 46 46 45 46 46 47 47 46 45 45 44 44 44 44 43 43 43 44 43 40 40 40 39 39 42 46 47 48 48 48 48 48 48 48 48
46 46 46 46 46 46 45 45 45 44 45 45 45 45 45 45 44 43 44 44 43 43 42 42 43 42 40 40 40 39 39 43 45 46 47 47 48 48 48 47 47 47
45 45 45 45 45 44 44 44 43 43 43 44 44 44 45 44 44 44 43 43 43 43 42 41 42 42 40 40 40 39 40 44 44 45 45 45 46 47 47 47 47 47
44 44 44 43 43 43 43 42 42 42 43 44 42 42 42 43 43 43 43 43 42 42 42 41 41 42 40 40 39 39 40 42 43 43 44 44 45 46 46 47 46 48
44 43 43 42 42 42 41 41 41 42 41 42 41 40 41 41 42 42 42 42 42 41 43 41 40 42 41 40 39 39 40 41 42 42 42 43 44 45 45 45 46 48
43 43 42 42 42 41 41 41 41 41 41 41 40 40 40 40 42 40 41 41 41 42 45 42 40 42 41 39 39 39 40 41 41 41 40 41 42 43 44 44 44 45
42 43 42 42 41 41 41 40 40 40 40 40 40 39 39 39 39 40 39 40 40 41 41 41 40 40 41 40 40 40 39 40 41 39 38 39 41 42 41 42 42 42
MSLP
1020.14 1020.02 1019.94 1019.86 1019.74 1019.54 1019.34 1019.18 1018.98 1018.86 1018.74 1018.54 1018.34 1018.10 1017.86 1017.66 1017.26 1016.98 1016.74 1016.62 1016.50 1016.34 1016.14 1015.98 1015.86 1015.78 1015.66 1015.74 1015.74 1015.66 1015.58 1015.46 1015.38 1015.34 1015.42 1015.42 1015.50 1015.58 1015.54 1015.58 1015.62 1015.54
1020.26 1020.14 1020.06 1019.94 1019.78 1019.54 1019.38 1019.22 1019.06 1018.90 1018.74 1018.58 1018.38 1018.10 1017.82 1017.58 1017.26 1017.02 1016.82 1016.62 1016.42 1016.26 1016.02 1015.86 1015.74 1015.66 1015.54 1015.58 1015.58 1015.54 1015.46 1015.38 1015.30 1015.14 1015.26 1015.26 1015.34 1015.54 1015.46 1015.30 1015.22 1015.14
1020.18 1020.10 1020.02 1019.90 1019.78 1019.58 1019.38 1019.22 1019.10 1018.98 1018.82 1018.62 1018.38 1018.14 1017.90 1017.58 1017.38 1017.10 1016.86 1016.66 1016.42 1016.14 1015.98 1015.82 1015.70 1015.58 1015.50 1015.38 1015.30 1015.30 1015.30 1015.26 1015.22 1015.02 1015.10 1015.18 1015.10 1015.06 1015.06 1015.06 1014.94 1014.98
1020.18 1020.10 1019.98 1019.86 1019.70 1019.54 1019.38 1019.26 1019.10 1018.94 1018.78 1018.62 1018.50 1018.30 1018.02 1017.70 1017.50 1017.30 1017.06 1016.82 1016.62 1016.30 1016.02 1015.82 1015.70 1015.54 1015.42 1015.26 1015.18 1015.14 1015.02 1015.02 1014.98 1014.98 1015.02 1014.94 1014.90 1014.82 1014.78 1014.66 1014.50 1014.54
1020.34 1020.22 1020.10 1019.98 1019.82 1019.62 1019.50 1019.38 1019.26 1019.14 1019.02 1018.94 1018.74 1018.50 1018.30 1018.06 1017.78 1017.46 1017.34 1017.18 1016.86 1016.58 1016.26 1016.06 1015.90 1015.74 1015.50 1015.30 1015.14 1015.02 1014.94 1014.94 1014.82 1014.78 1014.74 1014.66 1014.50 1014.46 1014.46 1014.58 1014.62 1014.66
1020.54 1020.46 1020.38 1020.26 1020.10 1019.94 1019.78 1019.70 1019.62 1019.58 1019.50 1019.38 1019.26 1018.98 1018.82 1018.58 1018.30 1017.98 1017.70 1017.54 1017.18 1016.90 1016.58 1016.38 1016.34 1016.38 1016.30 1016.02 1015.62 1015.34 1015.10 1014.90 1014.74 1014.66 1014.62 1014.54 1014.34 1014.22 1014.22 1014.22 1014.34 1014.34
1020.90 1020.74 1020.66 1020.50 1020.34 1020.22 1020.10 1020.14 1020.10 1020.02 1019.94 1019.86 1019.58 1019.46 1019.22 1018.94 1018.70 1018.46 1018.26 1018.06 1017.74 1017.46 1017.10 1017.02 1017.30 1017.18 1017.02 1016.78 1016.58 1016.42 1016.10 1015.74 1015.26 1014.90 1014.66 1014.38 1014.18 1014.02 1013.90 1013.86 1013.86 1013.78
1021.22 1021.06 1020.94 1020.82 1020.74 1020.66 1020.54 1020.50 1020.46 1020.34 1020.22 1020.02 1019.90 1019.70 1019.46 1019.30 1019.06 1018.86 1018.70 1018.50 1018.26 1017.98 1017.70 1017.58 1017.78 1017.66 1017.54 1017.26 1017.06 1016.70 1016.38 1016.10 1015.94 1015.66 1015.26 1014.62 1014.22 1013.94 1013.70 1013.54 1013.42 1013.34
1021.46 1021.38 1021.26 1021.14 1021.06 1020.98 1020.90 1020.74 1020.58 1020.38 1020.26 1020.18 1020.06 1019.90 1019.70 1019.50 1019.34 1019.06 1018.98 1018.82 1018.66 1018.46 1018.30 1018.06 1018.26 1018.18 1018.06 1017.78 1017.50 1017.30 1017.02 1016.62 1016.34 1016.06 1015.66 1015.18 1014.58 1014.02 1013.62 1013.30 1013.14 1012.98
1021.70 1021.58 1021.46 1021.38 1021.30 1021.26 1021.14 1020.94 1020.74 1020.54 1020.34 1020.26 1020.18 1020.06 1019.94 1019.74 1019.54 1019.34 1019.22 1019.14 1018.98 1018.82 1018.70 1018.42 1018.62 1018.58 1018.50 1018.38 1018.18 1017.94 1017.58 1017.22 1016.78 1016.42 1016.02 1015.50 1014.98 1014.34 1013.66 1013.18 1012.86 1012.70
1021.86 1021.74 1021.66 1021.62 1021.62 1021.54 1021.42 1021.18 1020.94 1020.74 1020.54 1020.38 1020.26 1020.18 1020.10 1019.94 1019.78 1019.58 1019.46 1019.42 1019.34 1019.18 1019.02 1018.74 1018.90 1018.90 1018.94 1018.74 1018.54 1018.34 1018.06 1017.62 1017.18 1016.82 1016.38 1015.86 1015.22 1014.58 1013.86 1013.18 1012.74 1012.46
1021.90 1021.78 1021.82 1021.82 1021.78 1021.70 1021.58 1021.42 1021.18 1020.98 1020.78 1020.62 1020.46 1020.38 1020.30 1020.22 1020.06 1019.90 1019.78 1019.74 1019.62 1019.46 1019.34 1019.06 1019.06 1019.14 1019.10 1018.98 1018.70 1018.38 1018.06 1017.70 1017.34 1016.94 1016.50 1016.02 1015.38 1014.70 1014.06 1013.34 1012.62 1012.22
1022.02 1021.90 1021.86 1021.90 1021.90 1021.90 1021.78 1021.62 1021.46 1021.22 1021.06 1020.94 1020.74 1020.58 1020.54 1020.50 1020.42 1020.30 1020.14 1020.06 1019.90 1019.78 1019.62 1019.42 1019.22 1019.22 1019.18 1018.98 1018.70 1018.38 1017.98 1017.62 1017.22 1016.78 1016.34 1015.90 1015.42 1014.86 1014.22 1013.54 1012.78 1011.98
1022.26 1022.10 1021.98 1021.94 1021.94 1021.98 1021.94 1021.86 1021.74 1021.54 1021.38 1021.26 1021.06 1020.86 1020.74 1020.82 1020.86 1020.78 1020.66 1020.46 1020.26 1020.10 1019.90 1019.66 1019.54 1019.42 1019.22 1018.98 1018.74 1018.42 1017.94 1017.46 1017.10 1016.58 1016.10 1015.66 1015.26 1014.82 1014.30 1013.62 1012.94 1012.18
1022.50 1022.34 1022.18 1022.10 1021.98 1021.98 1022.02 1021.98 1021.94 1021.86 1021.74 1021.58 1021.46 1021.34 1021.18 1021.18 1021.22 1021.10 1020.90 1020.66 1020.42 1020.22 1020.02 1019.82 1019.66 1019.58 1019.42 1019.42 1018.98 1018.26 1017.94 1017.42 1016.82 1016.38 1015.94 1015.46 1014.98 1014.54 1014.10 1013.54 1012.90 1012.22
1022.74 1022.58 1022.46 1022.34 1022.22 1022.10 1022.10 1022.10 1022.10 1022.06 1021.98 1021.86 1021.78 1021.66 1021.58 1021.54 1021.46 1021.26 1021.02 1020.82 1020.62 1020.42 1020.22 1020.02 1019.90 1019.66 1019.62 1019.46 1019.22 1018.78 1017.94 1017.26 1016.70 1016.18 1015.66 1015.26 1014.82 1014.34 1013.78 1013.22 1012.62 1011.98
1023.02 1022.94 1022.82 1022.74 1022.54 1022.38 1022.30 1022.26 1022.18 1022.18 1022.14 1022.06 1022.02 1021.94 1021.86 1021.78 1021.62 1021.46 1021.30 1021.18 1020.98 1020.74 1020.50 1020.26 1019.98 1019.86 1019.82 1019.42 1018.90 1018.42 1017.82 1017.14 1016.62 1015.98 1015.30 1014.86 1014.58 1014.22 1013.66 1012.98 1012.30 1011.74
1023.38 1023.34 1023.26 1023.14 1023.02 1022.86 1022.74 1022.66 1022.58 1022.42 1022.34 1022.30 1022.18 1022.10 1022.06 1021.98 1021.82 1021.74 1021.58 1021.42 1021.26 1021.02 1020.78 1020.46 1020.18 1020.06 1019.86 1019.38 1018.86 1018.34 1017.74 1017.10 1016.46 1015.82 1015.02 1014.54 1014.22 1013.90 1013.46 1012.90 1012.26 1011.58
1023.70 1023.66 1023.62 1023.54 1023.42 1023.30 1023.18 1023.10 1023.02 1022.86 1022.66 1022.50 1022.38 1022.26 1022.22 1022.14 1022.10 1021.94 1021.78 1021.62 1021.42 1021.22 1020.98 1020.70 1020.38 1020.18 1019.94 1019.46 1018.94 1018.38 1017.78 1017.02 1016.30 1015.82 1015.22 1014.82 1014.46 1013.98 1013.50 1012.98 1012.42 1011.70
1024.10 1024.06 1023.94 1023.86 1023.74 1023.62 1023.54 1023.46 1023.38 1023.30 1023.14 1022.90 1022.66 1022.42 1022.34 1022.34 1022.26 1022.18 1021.98 1021.78 1021.58 1021.42 1021.22 1020.90 1020.50 1020.22 1019.94 1019.50 1019.02 1018.50 1017.86 1017.10 1016.46 1015.98 1015.42 1015.02 1014.66 1014.26 1013.82 1013.38 1012.90 1012.34
1024.42 1024.34 1024.18 1024.10 1023.98 1023.94 1023.86 1023.78 1023.70 1023.62 1023.42 1023.26 1023.06 1022.86 1022.66 1022.54 1022.46 1022.34 1022.18 1021.94 1021.78 1021.54 1021.34 1021.06 1020.70 1020.34 1020.06 1019.62 1019.10 1018.58 1017.90 1017.10 1016.58 1016.06 1015.58 1015.10 1014.70 1014.38 1014.02 1013.66 1013.14 1012.62
1024.58 1024.50 1024.38 1024.30 1024.22 1024.18 1024.10 1024.10 1024.02 1023.94 1023.82 1023.62 1023.42 1023.22 1022.98 1022.78 1022.62 1022.50 1022.38 1022.22 1021.98 1021.70 1021.42 1021.18 1020.78 1020.42 1020.14 1019.78 1019.26 1018.70 1017.98 1017.22 1016.74 1016.18 1015.74 1015.26 1014.82 1014.46 1014.02 1013.58 1013.14 1012.58
1024.70 1024.66 1024.58 1024.54 1024.50 1024.42 1024.38 1024.38 1024.34 1024.22 1024.06 1023.90 1023.78 1023.62 1023.42 1023.18 1023.02 1022.78 1022.62 1022.46 1022.18 1021.94 1021.62 1021.38 1020.98 1020.54 1020.30 1019.94 1019.50 1018.98 1018.18 1017.58 1017.06 1016.54 1015.98 1015.46 1015.02 1014.58 1014.14 1013.70 1013.22 1012.66
1024.86 1024.82 1024.82 1024.78 1024.74 1024.70 1024.66 1024.62 1024.54 1024.42 1024.34 1024.26 1024.14 1024.02 1023.78 1023.58 1023.34 1023.14 1022.86 1022.70 1022.42 1022.18 1021.86 1021.70 1021.34 1020.82 1020.46 1020.14 1019.70 1019.26 1018.74 1018.14 1017.54 1016.94 1016.30 1015.70 1015.10 1014.70 1014.30 1013.74 1013.26 1012.74
1024.98 1025.02 1024.98 1024.98 1024.90 1024.90 1024.86 1024.74 1024.66 1024.62 1024.58 1024.42 1024.30 1024.18 1024.02 1023.86 1023.58 1023.42 1023.18 1022.90 1022.66 1022.42 1022.02 1021.82 1021.58 1021.10 1020.70 1020.38 1019.90 1019.42 1018.94 1018.42 1017.90 1017.46 1016.94 1016.14 1015.46 1014.86 1014.38 1013.94 1013.30 1012.74
1025.14 1025.14 1025.18 1025.10 1025.06 1025.02 1024.98 1024.90 1024.86 1024.70 1024.62 1024.54 1024.42 1024.34 1024.18 1024.02 1023.82 1023.66 1023.46 1023.22 1022.94 1022.66 1022.38 1022.10 1021.74 1021.38 1020.98 1020.58 1020.14 1019.62 1019.30 1018.86 1018.34 1017.82 1017.34 1016.66 1015.98 1015.38 1014.66 1014.06 1013.66 1012.98
Wind_Speed
5 4 4 4 4 4 5 6 5 5 5 5 5 6 6 7 7 7 7 6 5 5 6 5 5 6 6 5 5 5 6 6 6 5 6 6 6 7 8 7 8 7
5 4 4 4 5 5 5 4 5 5 6 5 5 6 6 6 7 7 7 6 6 6 6 6 5 5 5 5 5 5 5 6 8 5 6 7 8 6 8 10 9 8
4 3 3 3 2 3 4 4 4 4 5 5 5 5 6 6 6 7 8 8 7 7 6 6 5 5 5 6 6 5 5 6 7 6 4 7 7 8 7 6 7 7
3 3 4 4 4 4 4 4 5 5 5 6 7 7 6 6 6 7 8 9 9 9 8 6 6 6 5 6 6 6 5 5 6 5 6 6 7 8 7 7 7 7
4 5 5 5 5 6 5 5 7 8 8 8 8 8 9 10 9 9 8 8 8 9 8 10 9 8 7 6 6 6 5 6 6 5 5 6 6 6 6 6 7 8
7 6 6 6 6 6 7 9 10 10 10 10 10 9 9 9 10 10 10 11 9 9 10 10 11 12 13 13 11 8 7 6 6 6 6 7 7 5 6 7 8 9
8 7 8 7 9 9 9 10 9 10 10 9 8 9 9 10 10 10 11 11 10 10 10 11 12 11 11 10 10 10 10 11 12 10 8 7 6 7 7 8 9 10
8 7 7 7 9 9 9 8 7 8 8 8 8 8 9 9 10 8 9 10 10 11 11 10 11 11 12 10 11 11 11 9 9 10 11 10 7 7 7 7 8 9
8 8 7 7 8 7 8 7 7 7 8 9 9 9 9 9 9 8 9 9 9 10 11 9 11 10 10 10 10 11 11 11 10 10 9 10 10 9 8 8 8 8
7 7 8 7 8 8 9 9 8 7 7 8 8 8 9 9 9 9 9 10 10 10 10 8 11 10 11 10 11 12 12 13 13 12 11 10 9 10 10 8 9 9
5 5 7 7 8 7 8 8 8 8 8 8 7 8 9 9 10 10 10 11 10 11 11 9 10 11 12 13 12 11 11 11 11 11 11 12 11 10 12 11 9 10
5 5 6 6 7 7 7 7 7 8 8 8 8 8 9 10 10 10 11 11 11 11 11 11 8 10 12 13 13 12 11 11 10 10 11 11 12 11 11 11 10 9
7 7 6 5 6 6 7 7 7 8 9 10 9 8 9 11 11 11 10 11 11 11 11 11 9 11 13 14 14 13 12 11 11 11 10 10 10 11 12 12 12 11
7 7 7 6 4 5 6 7 7 8 9 10 9 10 10 10 11 11 10 9 9 10 10 9 10 11 13 15 15 14 13 13 11 10 11 11 11 11 11 12 13 13
7 6 6 6 6 5 6 7 7 7 9 9 9 9 9 10 9 9 9 10 10 10 10 9 9 11 12 14 16 16 13 13 11 11 11 11 10 11 11 12 12 12
8 7 7 7 7 7 7 6 6 7 8 8 9 8 9 9 9 9 9 10 11 11 10 9 9 9 17 25 18 15 15 11 10 10 10 10 10 10 10 11 12 12
8 8 8 9 8 8 8 8 7 6 7 8 8 8 9 9 9 10 10 10 11 11 11 9 7 11 23 20 21 23 18 13 10 10 10 11 10 9 10 11 11 12
7 7 8 8 8 9 9 9 8 6 7 7 7 8 8 7 9 9 9 9 8 9 9 9 8 16 21 22 22 22 21 14 9 9 9 9 10 11 10 10 10 11
7 8 8 8 9 8 8 8 8 8 7 7 7 6 5 8 8 8 9 8 9 9 9 9 8 16 21 23 22 22 22 16 9 10 10 11 11 12 12 11 11 12
7 8 8 9 8 8 8 8 8 8 7 6 6 5 6 7 8 8 8 8 9 9 8 9 9 16 21 22 22 23 23 16 9 10 10 10 12 12 11 11 11 11
7 8 8 8 8 8 8 8 8 7 8 7 6 7 6 7 8 8 8 9 9 9 8 9 9 18 20 22 23 23 24 14 9 8 9 10 10 11 12 12 13 12
6 7 8 8 8 8 8 9 8 8 8 7 7 7 6 6 6 6 8 9 9 10 9 11 11 18 20 22 23 23 23 11 11 10 10 10 10 11 12 11 11 12
5 7 7 7 7 8 8 8 8 8 8 6 7 7 7 8 7 7 7 8 9 10 11 11 11 16 21 22 22 24 18 12 11 10 10 10 10 11 11 11 11 14
5 6 7 6 6 7 7 6 6 5 6 6 6 6 7 7 7 7 7 7 8 10 10 11 11 15 21 22 22 23 18 12 11 11 11 10 11 10 10 10 13 22
5 6 6 6 6 6 5 6 6 5 4 4 5 5 5 5 6 7 7 7 8 8 14 13 10 13 19 21 23 22 18 12 11 10 12 12 12 12 11 11 13 13
4 5 5 6 6 5 5 5 4 4 6 5 5 5 6 6 6 6 7 8 8 8 9 10 11 11 15 22 22 22 21 14 9 11 14 14 12 12 12 13 13 13
Wind_Direction
18 12 19 20 12 4 4 4 359 357 352 344 344 333 345 325 322 321 307 300 290 282 282 271 259 257 259 259 252 251 248 254 254 252 235 224 218 213 234 225 231 233
24 23 22 9 2 358 356 347 345 349 345 340 337 335 333 326 336 339 330 317 299 286 284 282 271 254 257 263 252 245 254 258 259 250 245 240 247 225 235 237 237 240
39 38 29 20 5 357 347 339 337 335 336 333 327 342 335 333 339 347 350 347 337 320 300 289 289 270 256 261 263 254 255 257 260 261 245 242 241 244 236 239 240 243
8 1 355 349 347 350 350 355 353 350 345 349 348 338 340 339 349 353 356 357 353 348 337 323 307 297 280 266 262 265 264 263 258 252 249 245 236 233 237 236 243 241
3 353 351 347 340 342 349 2 8 8 6 2 358 360 360 2 360 2 0 353 353 352 360 3 347 330 318 298 281 274 267 267 268 259 255 254 240 231 228 219 224 226
15 11 8 8 5 3 15 25 24 21 18 12 6 3 4 2 4 359 1 359 355 359 6 5 11 15 10 3 351 333 315 294 276 263 255 255 256 236 223 226 226 232
27 21 20 23 29 26 36 36 30 25 20 11 7 9 1 3 4 2 5 0 3 3 4 24 23 17 9 4 6 0 356 349 342 326 294 263 248 247 234 228 227 232
35 29 26 31 35 30 34 36 35 32 23 17 16 6 7 3 3 2 6 3 8 10 2 30 17 19 4 5 0 353 345 348 341 341 339 320 282 258 248 237 234 233
44 35 30 30 34 32 31 28 30 31 30 27 22 15 13 10 1 4 7 4 12 9 1 20 24 17 4 4 359 352 341 336 336 334 331 328 324 299 267 255 250 244
48 40 36 33 36 32 32 28 21 21 24 31 27 22 18 12 8 9 10 11 12 6 3 12 25 17 5 8 0 351 342 335 334 331 323 317 312 311 303 274 254 251
49 45 44 43 44 37 32 29 25 21 22 22 22 24 20 14 14 14 15 15 13 8 0 10 28 20 10 1 352 344 336 329 325 323 318 311 305 300 300 295 281 260
40 42 46 48 47 40 32 25 24 24 23 22 16 21 26 20 15 14 15 13 11 9 6 2 25 21 4 354 346 338 332 325 320 314 309 306 303 298 296 296 289 277
36 35 40 51 46 41 33 25 22 22 26 23 17 18 30 23 17 17 14 13 10 8 8 1 8 6 358 352 345 336 329 323 316 311 304 301 298 298 295 292 289 280
32 32 36 41 53 47 40 33 27 27 29 26 19 19 27 28 21 17 14 12 12 10 6 6 5 0 356 352 344 337 330 321 312 305 304 301 298 296 294 292 289 286
26 28 32 35 38 47 44 35 32 34 34 29 25 23 22 28 21 15 11 15 14 13 11 10 9 1 358 352 341 336 331 319 312 304 300 298 297 297 295 292 288 282
27 26 31 31 31 38 40 35 37 38 36 32 28 25 25 26 21 16 14 15 14 12 13 12 7 357 351 345 344 344 333 321 311 306 305 301 300 297 295 292 289 286
33 32 30 30 28 31 34 30 33 42 40 37 33 30 29 26 21 19 18 16 14 13 12 7 355 360 349 343 342 346 348 335 322 314 317 317 309 295 297 297 294 292
34 34 33 32 30 29 31 29 23 26 37 35 34 32 29 25 24 19 16 14 9 7 4 357 355 357 351 348 345 344 348 346 331 321 320 325 324 314 301 294 291 292
36 36 35 35 32 31 31 30 26 24 24 22 25 24 25 27 20 13 13 7 8 5 358 353 351 355 352 351 348 346 342 344 347 338 338 339 337 334 330 322 319 316
39 39 41 38 34 33 33 32 30 27 21 15 10 9 21 21 16 13 7 7 4 2 354 351 350 354 353 352 351 349 343 339 346 340 338 339 338 337 334 329 323 320
44 45 45 41 37 36 34 33 28 22 19 11 8 4 10 15 12 8 5 4 1 359 357 353 353 352 356 353 352 351 345 339 345 342 341 339 339 338 339 333 329 322
50 50 47 42 40 36 36 32 28 21 18 10 9 7 5 2 5 8 6 2 358 358 359 355 350 352 356 355 354 353 348 347 344 343 345 342 340 342 337 333 329 325
55 56 51 45 38 39 36 33 28 21 19 14 16 11 7 4 360 0 360 358 357 358 358 355 349 352 355 356 354 354 353 349 345 340 344 344 344 339 337 333 335 334
60 59 56 46 40 39 34 28 25 23 23 12 22 10 9 0 354 354 352 354 355 357 358 356 349 349 354 354 355 355 356 350 345 342 338 342 342 344 338 337 338 340
66 63 59 51 46 37 31 28 22 22 9 14 18 13 6 352 358 356 352 353 352 352 356 0 350 349 353 353 354 357 360 353 349 345 342 343 344 342 345 342 342 338
68 71 60 55 50 39 32 26 11 15 13 14 9 11 359 356 354 358 358 353 350 353 353 355 353 352 353 353 355 355 359 358 349 352 348 341 343 346 343 345 347 345